Regional Weather Roundup
Issued by NWS

Home | Current Version | Previous Version | Text Only | Print | Product List | Glossary On
Versions: 1 2 3 4 5 6 7 8 9 10 11 12 13 14 15 16 17 18 19 20 21 22 23 24 25 26 27 28 29 30 31 32 33 34 35 36 37 38 39 40 41 42 43 44 45 46 47 48 49 50
000
ASUS45 KPSR 010010
RWRAZ

ARIZONA HOURLY REGIONAL WEATHER ROUNDUP
NATIONAL WEATHER SERVICE PHOENIX AZ
500 PM MST FRI JUL 31 2015

NOTE: FAIR INDICATES FEW OR NO CLOUDS BELOW 12,000 FEET WITH NO
SIGNIFICANT WEATHER AND/OR OBSTRUCTIONS TO VISIBILITY.

AZZ001>003-036-010100-
NORTHWEST ARIZONA

CITY           SKY/WX    TMP DP  RH WIND       PRES   REMARKS
BULLHEAD CITY  MOSUNNY  108  52  15 S7        29.81F HX 105
KINGMAN        MOSUNNY   97  45  16 SW14      30.05F
6HR MIN TEMP:  92; 6HR MAX TEMP:  99;

$$

AZZ004>008-015-016-018-010100-
NORTH CENTRAL ARIZONA

CITY           SKY/WX    TMP DP  RH WIND       PRES   REMARKS
GRAND CANYON   CLOUDY    69  53  56 W10       30.35R
6HR MIN TEMP:  64; 6HR MAX TEMP:  78; 6HR PCP:  0.05;

WILLIAMS       CLOUDY    72  54  53 N10       30.41R
PRESCOTT       CLOUDY    79  54  41 S10       30.20F
6HR MIN TEMP:  73; 6HR MAX TEMP:  87; 6HR PCP: TRACE;

FLAGSTAFF      CLOUDY    67  61  81 W3        30.36F
6HR MIN TEMP:  61; 6HR MAX TEMP:  78; 6HR PCP:  0.16;

PAYSON         CLOUDY    75  61  60 CALM      30.24S
PAGE           MOSUNNY   96  39  13 VRB3      30.08F
6HR MIN TEMP:  89; 6HR MAX TEMP:  98;

$$

AZZ009>014-017-010100-
NORTHEAST ARIZONA

CITY           SKY/WX    TMP DP  RH WIND       PRES   REMARKS
WINSLOW        NOT AVBL
SAINT JOHNS    CLOUDY    74  55  51 SE16G22   30.25S
6HR MIN TEMP:  74; 6HR MAX TEMP:  86; 6HR PCP: TRACE;

SHOW LOW       LGT RAIN  66  52  59 S10       30.33F
$$

AZZ023-010100-
GREATER PHOENIX AREA

CITY           SKY/WX    TMP DP  RH WIND       PRES   REMARKS
PHOENIX        TSTM      88  72  58 W8        29.91R
6HR MIN TEMP:  88; 6HR MAX TEMP: 110; 6HR PCP:  0.01;

GLENDALE       LGT RAIN  88  70  55 S6        29.94R
LUKE AFB       TSTM      81  66  61 W13       29.94R
                                      6HR PCP:  0.69;

DEER VALLEY    CLOUDY    95  55  26 NW10      29.91R
6HR MIN TEMP:  92; 6HR MAX TEMP: 105;

SCOTTSDALE     CLOUDY    92  59  33 NE15      29.90F
6HR MIN TEMP:  83; 6HR MAX TEMP: 106; 6HR PCP:  0.03;

MESA-FALCON    CLOUDY    90  61  37 N23G35    29.88F
MESA-GATEWAY   CLOUDY    91  61  35 NE16      29.93S
CHANDLER       CLOUDY    86  68  54 W6        29.95R
$$

AZZ027-028-010100-
SOUTHWEST MARICOPA COUNTY AND PINAL COUNTY

CITY           SKY/WX    TMP DP  RH WIND       PRES   REMARKS
CASA GRANDE    CLOUDY    88  68  51 N10       29.89F
6HR MIN TEMP:  79; 6HR MAX TEMP: 106; 6HR PCP:  0.18;

GILA BEND      PTSUNNY  102  60  25 SW14      29.84F HX 103
6HR MIN TEMP:  96; 6HR MAX TEMP: 102;

$$

AZZ503-504-507>509-010100-
SOUTHEAST ARIZONA

CITY           SKY/WX    TMP DP  RH WIND       PRES   REMARKS
TUCSON         CLOUDY    85  64  49 NW20G26   30.05R
6HR MIN TEMP:  85; 6HR MAX TEMP: 100;

DAVIS-MONTHAN  CLOUDY    83  66  55 NW10G23   30.03R
6HR MIN TEMP:  81; 6HR MAX TEMP:  98; 6HR PCP:  0.10;

RYAN FIELD     SUNNY     86  66  51 W10       30.04R
NOGALES        CLOUDY    74  65  73 CALM      30.12R
6HR MIN TEMP:  69; 6HR MAX TEMP:  89; 6HR PCP:  0.41;

SIERRA VISTA   TSTM      77  59  53 W15       30.15R
6HR MIN TEMP:  75; 6HR MAX TEMP:  91;

DOUGLAS          N/A    N/A N/A N/A MISG      30.06F
SAFFORD        MOSUNNY   96  55  25 SE10      29.99S
6HR MIN TEMP:  87; 6HR MAX TEMP:  99;

$$

AZZ020-021-025-026-031-010100-
SOUTHWEST ARIZONA

CITY           SKY/WX    TMP DP  RH WIND       PRES   REMARKS
YUMA           CLOUDY   108  56  18 VRB3      29.78F HX 107
6HR MIN TEMP: 102; 6HR MAX TEMP: 111;

$$

CAZ031-033-041-043-047-048-061-010100-
SOUTHERN CALIFORNIA

CITY           SKY/WX    TMP DP  RH WIND       PRES   REMARKS
DOWNTOWN L.A.  SUNNY     78  65  63 VRB3      29.94F
6HR MIN TEMP:  77; 6HR MAX TEMP:  84;

L.A. AIRPORT   MOSUNNY   75  65  70 W15       29.96F
6HR MIN TEMP:  73; 6HR MAX TEMP:  76;

SAN DIEGO      PTSUNNY   75  63  66 NW10      29.97F
6HR MIN TEMP:  75; 6HR MAX TEMP:  79;

BURBANK        SUNNY     90  60  36 S9        29.94F
6HR MIN TEMP:  79; 6HR MAX TEMP:  92;

ONTARIO        PTSUNNY   92  61  35 W12       29.94F
6HR MIN TEMP:  83; 6HR MAX TEMP:  96;

RIVERSIDE      CLOUDY    93  62  35 W12G17    29.93F
6HR MIN TEMP:  83; 6HR MAX TEMP:  96;

PALM SPRINGS   CLOUDY   105  58  21 NW20      29.83F HX 105
6HR MIN TEMP: 100; 6HR MAX TEMP: 108;

EL CENTRO NAS  PTSUNNY  111  29   6 W16       29.78F HX 103
6HR MIN TEMP: 102; 6HR MAX TEMP: 112;

IMPERIAL       SUNNY    110  39   9 W15       29.76F HX 104
6HR MIN TEMP: 100; 6HR MAX TEMP: 110;

BLYTHE         PTSUNNY  107  59  20 SE8       29.78F HX 108
6HR MIN TEMP:  99; 6HR MAX TEMP: 109;

NEEDLES        MOSUNNY  108  46  12 S5        29.82F HX 104
6HR MIN TEMP:  96; 6HR MAX TEMP: 110;

$$

NVZ020-UTZ003-010100-
SOUTHERN NEVADA-UTAH

CITY           SKY/WX    TMP DP  RH WIND       PRES   REMARKS
LAS VEGAS      MOSUNNY  104  52  17 N15G22    29.87F HX 101
6HR MIN TEMP:  96; 6HR MAX TEMP: 105;

SALT LAKE CITY MOSUNNY   93  24   8 N6        30.12F
6HR MIN TEMP:  86; 6HR MAX TEMP:  95;

$$

NMZ009-TXZ055-010100-
NEW MEXICO-WEST TEXAS

CITY           SKY/WX    TMP DP  RH WIND       PRES   REMARKS
ALBUQUERQUE    PTSUNNY   81  51  35 NW8       30.25S
6HR MIN TEMP:  77; 6HR MAX TEMP:  86;

EL PASO        MOSUNNY   93  51  23 S10       30.08F
6HR MIN TEMP:  86; 6HR MAX TEMP:  93;

$$


........................KEY........................
SKY/WX - SKY CONDITION/WEATHER
TMP    - TEMPERATURE IN FAHRENHEIT
DP     - DEW POINT IN FAHRENHEIT
RH     - RELATIVE HUMIDITY IN PERCENT
WIND   - DIRECTION AND SPEED IN MILES PER HOUR (MPH)
VRB    - VARIABLE WIND DIRECTION
PRES   - MEAN SEA LEVEL PRESSURE IN INCHES OF MERCURY
         F - FALLING PRESSURE   R - RISING PRESSURE
         S - STEADY PRESSURE
VSB    - VISIBILITY IN MILES
HX     - HEAT INDEX IN FAHRENHEIT
WCI    - WIND CHILL INDEX IN FAHRENHEIT
TC     - TEMPERATURE IN CELSIUS WHICH IS ALSO KNOWN AS
         TEMPERATURE IN CENTIGRADE
AFB    - AIR FORCE BASE
         LUKE AFB IS LUKE AIR FORCE BASE
         DAVIS-MONTHAN IS DAVIS-MONTHAN AIR FORCE BASE
NAS    - NAVAL AIR STATION
         EL CENTRO NAS IS EL CENTRO NAVAL AIR STATION
N/A    - NOT AVAILABLE



USA.gov is the U.S. government's official web portal to all federal, state and local government web resources and services.